Tracking 18843 objects as of 20-November-2017
HD Live streaming from Space Station
objects crossing your sky now

FENGYUN 1C DEB

Track FENGYUN 1C DEB now!
10-day predictions


NORAD ID: 32230
Int'l Code: 1999-025CWC
Perigee: 767.3 km
Apogee: 892.4 km
Inclination: 98.9 °
Period: 101.4 minutes
Semi major axis: 7200 km
RCS: 0.0054 m2 (small)
Launch date: May 10, 1999
Source: People's Republic of China (PRC)
Launch site: Taiyaun Space Center, China (TSC)

Note: This is SATELLITE DEBRIS
aabbcc
Your satellite tracking list
Your tracking list is empty




NASA's NSSDC Master Catalog

Two Line Element Set (TLE):
1 32230U 99025CWC 17324.14807500  .00001191  00000-0  55129-3 0  9994
2 32230  98.9011  27.0945 0086841  14.1225  39.7864 14.20788394536703
Source of the keplerian elements: AFSPC